User: anonymous   Login
Location: Stoke Bliss
(52.2667°N, 2.5167°W)
Time: 10:29:49
(UTC+00:00)
Language:

Cosmos 1844 Rocket - Orbit

View from above orbital plane
View from above orbital plane
View from above satellite
View from above satellite

Ground track
Ground track

The orbit data is extracted from the following two-line orbital elements,

1 17974U 87041B   21133.48800748 -.00000138  00000-0 -44672-4 0  9998
2 17974  71.0045 144.6800 0013456   6.0927 105.7047 14.17274479758531
Epoch (UTC): 13 May 2021 11:42:43
Eccentricity: 0.0013456
inclination: 71.0045°
perigee height: 825 km
apogee height: 844 km
right ascension of ascending node: 144.6800°
argument of perigee: 6.0927°
revolutions per day: 14.17274479
mean anomaly at epoch: 105.7047°
orbit number at epoch: 75853

The dashed part of the orbit path shows where the satellite is in the earth's shadow,  

DLR